Location: Bieujac
(44.5398°N, 0.1549°W)
Time: 22:57:35
(UTC+00:00)

Lacrosse 5 - Pass Details

Date: 17 November 2019
Orbit: 715 x 724 km, 57.0° (Epoch: 30 November)

Event Time Altitude Azimuth Distance (km) Brightness Sun altitude
Exits shadow 06:21:53 - 299° (WNW) 2,368 3.9 -6.9°
Reaches altitude 10° 06:22:27 10° 303° (WNW) 2,209 3.8 -6.8°
Maximum altitude 06:26:15 21° 352° (N) 1,602 3.4 -6.2°
Drops below altitude 10° 06:30:03 10° 41° (NE) 2,206 4.7 -5.6°
Sets 06:33:00 0° 57° (ENE) 3,125 5.7 -5.1°
